Regional Weather Roundup
Issued by NWS

Home | Current Version | Previous Version | Text Only | Print | Product List | Glossary On
Versions: 1 2 3 4 5 6 7 8 9 10 11 12 13 14 15 16 17 18 19 20 21 22 23 24 25 26 27 28 29 30 31 32 33 34 35 36 37 38 39 40 41 42 43 44 45 46 47 48 49 50
000
ASUS43 KDTX 011110
RWRMI
MICHIGAN HOURLY REGIONAL WEATHER ROUNDUP
NATIONAL WEATHER SERVICE DETROIT/PONTIAC MI
700 AM EDT WED JUL 01 2015

NOTE: "FAIR" INDICATES FEW OR NO CLOUDS BELOW 12,000 FEET WITH NO
SIGNIFICANT WEATHER AND/OR OBSTRUCTION TO VISIBILITY.

MIZ047>049-052>055-059>063-066>070-074>076-081>083-011200-
SOUTHEAST LOWER MICHIGAN

CITY           SKY/WX    TMP DP  RH WIND       PRES   REMARKS
ADRIAN         CLOUDY    62  59  90 W5        29.87R
ALMA           CLOUDY    56  55  97 NW7       29.89R
ANN ARBOR      CLOUDY    63  59  87 NW6       29.86R
BAD AXE        CLOUDY    59  57  93 W3        29.84R FOG
CARO           CLOUDY    60  58  94 W3        29.85R
DETROIT CITY   MOCLDY    62  60  93 CALM      29.84R FOG
DETROIT        CLOUDY    63  61  93 W6        29.85R FOG
FLINT          CLOUDY    62  58  86 NW12      29.86R FOG
GROSSE ILE     MOCLDY    63  61  94 W3        29.83R FOG
HILLSDALE      CLOUDY    60  60 100 W6        29.88R FOG
HOWELL         LGT RAIN  62  60  96 NW8       29.86R

CITY           SKY/WX    TMP DP  RH WIND       PRES   REMARKS
JACKSON        CLOUDY    60  58  92 NW7       29.88R
LAMBERTVILLE   CLOUDY    64  60  90 W5        29.87R FOG
LANSING        CLOUDY    58  56  93 NW7       29.88R
LAPEER         CLOUDY    59  58  96 NW3       29.85R FOG
MASON          CLOUDY    58  57  98 NW6       29.88R FOG
MONROE         CLOUDY    62  61  97 W6        29.85R FOG
MT. CLEMENS    MOCLDY    61  59  94 NW5       29.82R FOG
PONTIAC        MOCLDY    61  59  93 NW5       29.84R
PORT HOPE        N/A     62  59  90 NW9       29.81R
PORT HURON     MOCLDY    57  57 100 CALM      29.84R FOG
TRI CITIES     CLOUDY    58  54  86 NW9       29.87R
MIDLAND        CLOUDY    56  54  92 W8        29.87R
TROY           CLOUDY    63  61  93 NW5       29.86R
SAGINAW HB     CLOUDY    57  57 100 NW9       29.86R
$$
MIZ043>046-050>051-056>058-064>065-071>073-077>080-011200-
SOUTHWEST LOWER MICHIGAN

CITY           SKY/WX    TMP DP  RH WIND       PRES   REMARKS
BATTLE CREEK   CLOUDY    58  55  90 NW9       29.90R FOG
BENTON HARBOR  CLOUDY    58  52  80 VRB5      29.92S
BIG RAPIDS     CLOUDY    52  48  86 NW7       29.91R
COLDWATER      CLOUDY    56  55  99 W6        29.90R FOG
FREMONT        CLOUDY    52  50  94 NW8       29.92S
HOLLAND        CLOUDY    55  51  86 NW7       29.93R
GRAND RAPIDS   CLOUDY    56  53  90 NW8       29.91R
IONIA          CLOUDY    57  55  94 NW6       29.89R
KALAMAZOO      CLOUDY    57  53  86 W6        29.91R FOG
LUDINGTON      CLOUDY    53  50  88 N7        29.94R
MARSHALL       CLOUDY    59  57  94 W7        29.89R FOG
MOUNT PLEASANT CLOUDY    54  52  92 NW5       29.88R
MUSKEGON       CLOUDY    54  49  83 N8        29.93R
SOUTH HAVEN    CLOUDY    56  52  85 N8        29.93R
$$
MIZ016>042-011200-
NORTHERN LOWER MICHIGAN

CITY           SKY/WX    TMP DP  RH WIND       PRES   REMARKS
ALPENA         CLOUDY    58  57  97 NW6       29.85R FOG
BEAVER ISLAND  CLOUDY    50  49  95 NW3       29.91R FOG
BELLAIRE       CLOUDY    52  49  90 CALM      29.91R
CADILLAC       CLOUDY    50  48  92 W5        29.90R
CHARLEVOIX     CLOUDY    53  53  99 W6        29.92R FOG
FRANKFORT      CLOUDY    53  46  78 N5        29.93R
GAYLORD        FOG       49  49 100 W8        29.88R VSB 1
GRAYLING       FOG       50  49  97 NW5       29.89R VSB 3/4
HARBOR SPRINGS CLOUDY    53  52  95 CALM      29.89R
HOUGHTON LAKE  CLOUDY    50  49  96 NW7       29.90R
MANISTEE       CLOUDY    52  45  76 N5        29.94R
OSCODA         CLOUDY    60  58  93 NW8       29.83R
PELLSTON       CLOUDY    53  52  96 NW3       29.88R FOG
ROGERS CITY    CLOUDY    57  56  97 NW5       29.86R FOG
TRAVERSE CITY  CLOUDY    51  48  89 W9        29.90R
$$
MIZ007>008-015-011200-
EASTERN UPPER MICHIGAN

CITY           SKY/WX    TMP DP  RH WIND       PRES   REMARKS
KINROSS        CLOUDY    54  52  94 N7        29.87R
MACKINAC ISLAN CLOUDY    54  54 100 N7        29.87R
NEWBERRY       CLOUDY    45  45  98 NW5       29.90R
S. S. MARIE    CLOUDY    53  49  86 N6        29.87R
MUNISING         N/A     47  45  93 N10       29.95R
$$
MIZ004>006-011>014-085-011200-
CENTRAL UPPER MICHIGAN

CITY           SKY/WX    TMP DP  RH WIND       PRES   REMARKS
MANISTIQUE     CLOUDY    46  44  93 N14       29.92R
ESCANABA       CLOUDY    48  43  81 N9        29.95R
MENOMINEE      CLOUDY    48  43  81 N3        29.96R
SAWYER-GWINN   CLOUDY    45  41  87 N14       29.96R
$$
MIZ001>003-009>011-084-011200-
WESTERN UPPER MICHIGAN

CITY           SKY/WX    TMP DP  RH WIND       PRES   REMARKS
IRON MOUNTAIN  CLEAR     42  39  89 CALM      29.96R
HOUGHTON       CLEAR     46  40  79 N9        29.99R
COPPER HARBOR    N/A     47  41  80 N5        30.00R
IRONWOOD       PTCLDY    39  37  93 CALM      30.00R
$$

ABBREVIATIONS USED IN REMARKS
   TC - TEMPERATURE IN CELSIUS
  WCI - WIND CHILL INDEX
   HX - HEAT INDEX
  VSB - VISIBILITY



USA.gov is the U.S. government's official web portal to all federal, state and local government web resources and services.